Terug naar catalogus

HULIANWANG DIGUI-52

ActiefCommunicatieLEO
NORAD 65109·PAYLOAD·🇨🇳 China

Gelanceerd Aug 4, 2025 vanaf Wenchang Space Launch Site

Loading…

Volgende Passages (komende 24 uur)

TLE

VersSource: Space-Track

Epoch: Sep 14, 2026, 14:23 UTC

1 65109U 25168D   26257.59991421 -.00000082  00000-0  89614-4 0  9998
2 65109  50.0053   5.0520 0009659   8.8237 351.2804 13.29326832 54589

Volg HULIANWANG DIGUI-52 in realtime met AllMySat

Download on the App Store